[[{"header":{"parameterUnit":"m.s-1","parameterCategory":1,"la1":30.2991,"la2":30.254,"lo1":-89.0895,"lo2":-89.0444,"dy":0.0017,"dx":0.0017,"nx":28,"ny":28,"refTime":"2023-08-20T09:00:00:Z","depth":0,"parameterNumber":2,"parameterNumberName":"U-component_of_WINDS"},"data":[0,0,0,0,0,0,0,0,0,0,0,0,0,0,0,0,0,0,0,0,0,0,0,0,0,0,0,0,0,0,0,0,0,0,0,0,0,0,0,0,0,0,0,0,0,0,0,0,0,0,0,0,0,0,0,0,0,0,-0.154,-0.154,0,-0.1495,-0.1495,-0.1494,-0.1478,-0.1478,-0.1478,-0.1478,-0.1431,-0.1429,-0.1428,0,0,0,0,0,0,0,0,0,0,0,0,0,-0.1612,-0.1611,-0.154,-0.154,-0.1539,-0.1495,-0.1495,-0.1494,-0.1478,-0.1478,-0.1478,-0.1479,-0.1431,-0.143,-0.1428,0,0,0,0,0,0,0,0,0,0,0,0,0,-0.1575,-0.161,-0.154,-0.1526,-0.1524,-0.1496,-0.1495,-0.1494,-0.1478,-0.1478,-0.1478,-0.1479,-0.1432,-0.143,-0.1428,-0.141,0,0,-0.1421,-0.142,0,0,0,0,0,0,0,0,-0.1577,-0.1573,-0.1529,-0.1527,-0.1525,-0.1493,-0.1503,-0.1466,-0.1478,-0.1495,-0.1478,-0.1479,-0.1451,-0.1447,-0.1438,-0.1408,-0.1406,-0.1421,-0.142,-0.1419,-0.1418,0,0,0,0,0,0,0,-0.158,-0.1575,-0.1522,-0.1528,-0.1526,-0.1522,-0.1517,-0.1496,-0.1472,-0.1494,-0.1493,-0.1488,-0.145,-0.144,-0.1437,-0.1405,-0.1421,-0.1419,-0.1418,-0.1417,-0.1359,-0.1358,0,0,0,0,0,0,-0.1585,-0.1577,-0.1524,-0.1521,-0.1552,-0.152,-0.1515,-0.1503,-0.1473,-0.1468,-0.1487,-0.1487,-0.1444,-0.144,-0.1435,-0.1413,-0.1419,-0.1417,-0.1416,-0.1359,-0.1359,-0.1358,0,0,0,0,0,0,-0.1587,-0.1581,-0.1526,-0.1549,-0.1541,-0.1519,-0.1505,-0.1502,-0.1492,-0.1468,-0.1463,-0.1482,-0.1444,-0.1438,-0.1417,-0.1411,-0.1416,-0.1414,-0.1359,-0.1359,-0.1358,-0.1369,0,0,0,0,0,0,-0.1589,-0.1581,-0.1574,-0.1549,-0.154,-0.1508,-0.1505,-0.1501,-0.1489,-0.1488,-0.1461,-0.1457,-0.1444,-0.142,-0.1415,-0.1409,-0.1412,-0.136,-0.1359,-0.1359,-0.1369,-0.1369,-0.1369,0,0,0,0,0,-0.1591,-0.1578,-0.1574,-0.1567,-0.1531,-0.1508,-0.1503,-0.1488,-0.1488,-0.1481,-0.1466,-0.1458,-0.1413,-0.1418,-0.1412,-0.1405,-0.136,-0.1359,-0.1359,-0.1369,-0.1369,-0.1369,0,0,0,0,0,0,-0.1603,-0.1574,-0.1569,-0.1547,-0.153,-0.1505,-0.1495,-0.1488,-0.147,-0.147,-0.1452,-0.1446,-0.1426,-0.1413,-0.1419,-0.1387,-0.1386,-0.1384,-0.1396,-0.1396,-0.1396,-0.1399,-0.1411,0,0,0,0,0,-0.1603,-0.1586,-0.1563,-0.1545,-0.1537,-0.1518,-0.1507,-0.1497,-0.1479,-0.1471,-0.1454,-0.1436,-0.1418,-0.1406,-0.1388,-0.1367,-0.1361,-0.136,-0.136,-0.136,-0.1358,-0.1347,-0.1346,-0.1356,-0.1356,-0.1356,0,0,-0.1602,-0.1585,-0.1575,-0.1547,-0.1533,-0.1517,-0.1512,-0.1494,-0.1482,-0.1468,-0.1447,-0.1434,-0.1413,-0.1392,-0.1382,-0.1381,-0.1354,-0.1359,-0.1359,-0.1357,-0.1347,-0.1346,-0.1345,-0.1356,-0.1356,-0.1356,0,0,-0.1593,-0.1578,-0.1563,-0.1549,-0.1528,-0.1515,-0.1512,-0.1488,-0.1479,-0.1458,-0.1448,-0.1433,-0.1402,-0.1387,-0.1376,-0.1363,-0.1356,-0.1358,-0.1358,-0.1347,-0.1346,-0.1346,-0.1342,-0.1341,-0.1357,-0.1357,-0.1357,0,-0.1595,-0.157,-0.1556,-0.154,-0.1528,-0.1516,-0.1501,-0.1487,-0.1461,-0.1453,-0.1453,-0.1414,-0.1399,-0.1375,-0.1372,-0.1363,-0.1359,-0.1361,-0.1348,-0.1347,-0.1346,-0.1342,-0.1341,-0.1357,-0.1357,-0.1357,-0.1357,0,-0.1575,-0.1558,-0.1548,-0.1524,-0.1511,-0.1495,-0.1479,-0.1467,-0.1459,-0.1447,-0.1426,-0.1408,-0.1386,-0.138,-0.1371,-0.1355,-0.1355,-0.1351,-0.135,-0.1346,-0.1342,-0.134,-0.1358,-0.1357,-0.1357,-0.1357,0,0,-0.157,-0.154,-0.1536,-0.1526,-0.1502,-0.1489,-0.1473,-0.1453,-0.1444,-0.1426,-0.1413,-0.1388,-0.1385,-0.1372,-0.1362,-0.1352,-0.1345,-0.135,-0.1349,-0.135,-0.1327,-0.133,-0.1328,-0.134,-0.134,-0.134,-0.1329,0,-0.1558,-0.153,-0.1517,-0.1494,-0.1479,-0.1468,-0.1455,-0.1439,-0.1427,-0.1412,-0.1399,-0.1382,-0.1379,-0.1372,-0.1362,-0.1348,-0.134,-0.1348,-0.1327,-0.1327,-0.1333,-0.1326,-0.1329,-0.132,-0.1327,-0.1327,-0.1327,0,-0.154,-0.1524,-0.15,-0.148,-0.1473,-0.1461,-0.1442,-0.1428,-0.141,-0.1403,-0.1389,-0.138,-0.1363,-0.1364,-0.134,-0.1346,-0.1337,-0.1329,-0.1328,-0.1326,-0.1326,-0.1323,-0.1316,-0.1315,-0.1324,-0.1324,-0.1324,0,-0.1541,-0.1513,-0.1495,-0.1486,-0.1462,-0.1454,-0.1443,-0.1425,-0.1415,-0.1398,-0.1391,-0.1373,-0.1363,-0.1349,-0.1335,-0.1336,-0.1313,-0.1312,-0.1306,-0.1307,-0.1301,-0.1302,-0.1293,-0.1296,-0.1296,-0.1296,-0.1296,0,-0.1529,-0.1515,-0.1495,-0.1484,-0.1468,-0.1454,-0.1439,-0.1427,-0.1412,-0.1399,-0.1388,-0.1376,-0.1358,-0.1344,-0.1333,-0.1316,-0.1311,-0.1305,-0.1302,-0.1306,-0.1306,-0.1299,-0.1299,-0.1295,-0.1295,-0.1295,-0.1296,0,-0.1526,-0.1512,-0.1492,-0.1471,-0.1466,-0.1455,-0.1437,-0.1426,-0.1415,-0.1398,-0.1394,-0.1376,-0.1358,-0.1343,-0.132,-0.1313,-0.1295,-0.1292,-0.1302,-0.13,-0.1295,-0.1296,-0.1281,-0.1279,-0.1283,-0.1283,-0.1283,0,-0.1519,-0.1508,-0.1487,-0.1478,-0.1467,-0.1452,-0.1442,-0.1428,-0.1417,-0.1397,-0.1389,-0.1371,-0.1356,-0.1329,-0.1314,-0.1296,-0.1292,-0.1288,-0.1289,-0.1294,-0.1292,-0.1293,-0.1292,-0.1288,-0.1288,-0.1288,-0.1288,0,-0.1509,-0.1503,-0.1489,-0.1472,-0.146,-0.1446,-0.1431,-0.1424,-0.1408,-0.1396,-0.1379,-0.1368,-0.1345,-0.1328,-0.1309,-0.1298,-0.129,-0.1288,-0.1286,-0.1289,-0.1296,-0.1293,-0.1302,-0.1288,-0.1288,-0.1288,-0.1288,-0.1288,-0.1504,-0.1495,-0.1478,-0.1463,-0.1451,-0.1438,-0.1427,-0.1415,-0.1401,-0.1382,-0.1374,-0.1357,-0.134,-0.1314,-0.1303,-0.129,-0.1288,-0.1285,-0.1284,-0.1283,-0.1284,-0.1298,-0.1286,-0.1286,-0.1286,-0.1286,-0.1286,0,-0.1494,-0.1484,-0.147,-0.145,-0.1438,-0.1433,-0.1418,-0.1408,-0.1393,-0.1378,-0.1364,-0.1345,-0.1328,-0.1312,-0.1295,-0.1287,-0.1283,-0.1283,-0.1283,-0.1281,-0.1286,-0.129,-0.1287,-0.1287,-0.1287,-0.1287,-0.1287,-0.1287,-0.1488,-0.1471,-0.1464,-0.1442,-0.1431,-0.1414,-0.1406,-0.1394,-0.1383,-0.1362,-0.1349,-0.1339,-0.1324,-0.1305,-0.129,-0.1286,-0.128,-0.1281,-0.1275,-0.1281,-0.1281,-0.1281,-0.1284,-0.128,-0.1279,-0.1271,-0.1271,-0.1271]},{"header":{"parameterUnit":"m.s-1","parameterCategory":1,"la1":30.2991,"la2":30.254,"lo1":-89.0895,"lo2":-89.0444,"dy":0.0017,"dx":0.0017,"nx":28,"ny":28,"refTime":"2023-08-20T09:00:00:Z","depth":0,"parameterNumber":3,"parameterNumberName":"V-component_of_WINDS"},"data":[0,0,0,0,0,0,0,0,0,0,0,0,0,0,0,0,0,0,0,0,0,0,0,0,0,0,0,0,0,0,0,0,0,0,0,0,0,0,0,0,0,0,0,0,0,0,0,0,0,0,0,0,0,0,0,0,0,0,4.6718,4.6718,0,4.6668,4.6667,4.6666,4.6584,4.6582,4.6581,4.658,4.6528,4.6528,4.6528,0,0,0,0,0,0,0,0,0,0,0,0,0,4.6745,4.6745,4.6718,4.6718,4.6717,4.6668,4.6667,4.6666,4.6584,4.6582,4.6581,4.6579,4.6528,4.6528,4.6528,0,0,0,0,0,0,0,0,0,0,0,0,0,4.6718,4.6745,4.6718,4.667,4.6665,4.6668,4.6667,4.6666,4.6585,4.6582,4.658,4.6578,4.6528,4.6528,4.6528,4.6574,0,0,4.6529,4.6529,0,0,0,0,0,0,0,0,4.6719,4.6717,4.6678,4.6673,4.6668,4.663,4.6657,4.6635,4.6585,4.6615,4.6579,4.6577,4.6564,4.6561,4.6556,4.6572,4.6569,4.6529,4.6529,4.6529,4.6529,0,0,0,0,0,0,0,4.6721,4.6719,4.6698,4.6677,4.6671,4.6651,4.6645,4.6653,4.6603,4.6613,4.6606,4.6601,4.6561,4.6557,4.6555,4.6569,4.6529,4.6529,4.6529,4.6529,4.6618,4.662,0,0,0,0,0,0,4.673,4.6721,4.67,4.6697,4.6689,4.6653,4.6646,4.6644,4.6603,4.6594,4.6603,4.6598,4.6558,4.6555,4.6552,4.6602,4.6529,4.6529,4.6529,4.6616,4.6618,4.6621,0,0,0,0,0,0,4.6731,4.6729,4.6702,4.6707,4.6702,4.6655,4.6654,4.6645,4.664,4.6596,4.6587,4.6608,4.6556,4.6552,4.6569,4.6599,4.6529,4.6529,4.6613,4.6616,4.662,4.6702,0,0,0,0,0,0,4.6732,4.673,4.6747,4.6708,4.6702,4.6719,4.6656,4.6645,4.664,4.6632,4.6598,4.659,4.6554,4.6569,4.6569,4.6598,4.6529,4.661,4.6614,4.6619,4.6696,4.6708,4.6718,0,0,0,0,0,4.6734,4.6772,4.6748,4.6746,4.6722,4.6721,4.6718,4.6675,4.6643,4.6659,4.6631,4.6591,4.6596,4.6572,4.6571,4.66,4.6608,4.6613,4.6618,4.6691,4.6706,4.6717,0,0,0,0,0,0,4.6816,4.6766,4.6739,4.6766,4.6748,4.6707,4.6726,4.6692,4.6683,4.6676,4.6624,4.6616,4.6639,4.6622,4.6595,4.6641,4.6596,4.6601,4.6652,4.6665,4.6675,4.6678,4.6529,0,0,0,0,0,4.6837,4.684,4.6797,4.6825,4.6818,4.6774,4.6772,4.6741,4.6721,4.6713,4.6686,4.6668,4.6665,4.6664,4.666,4.6694,4.6685,4.6714,4.6725,4.6734,4.6738,4.6754,4.6766,4.6638,4.6638,4.6638,0,0,4.6881,4.6854,4.686,4.6841,4.6824,4.6828,4.6768,4.6776,4.6778,4.6714,4.6727,4.6707,4.6684,4.6709,4.6719,4.6695,4.6771,4.674,4.6748,4.6747,4.676,4.6772,4.6783,4.6642,4.6641,4.6641,0,0,4.6962,4.6944,4.6964,4.6948,4.6923,4.6893,4.6899,4.6863,4.6847,4.686,4.6811,4.6814,4.6811,4.6796,4.6788,4.6865,4.6827,4.6865,4.692,4.6936,4.6946,4.6955,4.698,4.6991,4.687,4.6871,4.6871,0,4.702,4.7024,4.6979,4.6989,4.6983,4.6925,4.6945,4.6932,4.6907,4.6903,4.6877,4.6872,4.6852,4.6872,4.6891,4.6888,4.6891,4.6868,4.6948,4.6956,4.6964,4.6988,4.6998,4.6875,4.6875,4.6874,4.6874,0,4.7096,4.71,4.712,4.7096,4.7092,4.7108,4.7065,4.7066,4.7036,4.701,4.7023,4.6998,4.6986,4.6989,4.696,4.7006,4.6991,4.6958,4.691,4.6981,4.7003,4.7012,4.6882,4.688,4.6879,4.6878,0,0,4.7225,4.7177,4.7185,4.7173,4.7142,4.7144,4.7158,4.7146,4.7147,4.7133,4.7142,4.7141,4.7109,4.71,4.7069,4.7084,4.7144,4.7048,4.7046,4.7065,4.7191,4.7215,4.7227,4.712,4.7122,4.7123,4.7193,0,4.7299,4.7317,4.7278,4.7306,4.7309,4.7255,4.7266,4.7248,4.7225,4.7224,4.7197,4.7197,4.7156,4.715,4.7162,4.7135,4.7169,4.7129,4.7127,4.7127,4.7132,4.7238,4.7263,4.733,4.7201,4.7202,4.7203,0,4.7386,4.7375,4.7404,4.737,4.737,4.7381,4.7367,4.7367,4.7346,4.7327,4.7318,4.7281,4.7292,4.7248,4.7261,4.7235,4.7232,4.7219,4.722,4.7216,4.7168,4.7235,4.735,4.736,4.7217,4.7216,4.7215,0,4.7475,4.7468,4.7484,4.7476,4.7438,4.7446,4.7431,4.7407,4.7403,4.7392,4.7388,4.7379,4.7373,4.7366,4.7328,4.73,4.7345,4.7298,4.7329,4.733,4.7339,4.7338,4.7453,4.7341,4.7341,4.7341,4.7341,0,4.7559,4.7579,4.7523,4.7533,4.7553,4.7508,4.7529,4.7508,4.7488,4.7492,4.7446,4.7451,4.7401,4.7401,4.7372,4.7386,4.7384,4.7369,4.7361,4.7372,4.7374,4.7367,4.7361,4.7343,4.7343,4.7342,4.7342,0,4.7661,4.7625,4.7638,4.7602,4.7593,4.7609,4.7577,4.7584,4.7558,4.7565,4.7564,4.7523,4.752,4.7482,4.7471,4.7451,4.7477,4.7461,4.7484,4.7478,4.751,4.7506,4.7622,4.7635,4.7518,4.7519,4.752,0,4.7716,4.773,4.7694,4.7694,4.7681,4.7681,4.7676,4.7633,4.763,4.7607,4.7617,4.7611,4.7603,4.7602,4.7571,4.7562,4.7544,4.7586,4.7542,4.7553,4.7542,4.7541,4.7541,4.7594,4.7595,4.7597,4.7598,0,4.7817,4.7799,4.7794,4.7783,4.7779,4.7768,4.7755,4.7757,4.771,4.7709,4.7706,4.77,4.7689,4.7683,4.7669,4.7653,4.7617,4.7612,4.7618,4.7629,4.7641,4.7632,4.7506,4.7609,4.7608,4.7607,4.7606,4.7606,4.7895,4.7904,4.7881,4.7877,4.7863,4.7851,4.7856,4.7831,4.7827,4.7815,4.779,4.7791,4.7769,4.7746,4.7733,4.7733,4.7712,4.7721,4.7723,4.7726,4.7731,4.7643,4.7731,4.773,4.773,4.773,4.7729,0,4.7992,4.7975,4.7972,4.7954,4.7951,4.7919,4.7903,4.7902,4.7903,4.7886,4.788,4.7876,4.787,4.7839,4.783,4.7835,4.7819,4.7834,4.7832,4.7829,4.7752,4.7746,4.7848,4.7848,4.7848,4.7848,4.7848,4.7848,4.8042,4.8055,4.8034,4.804,4.8022,4.8022,4.8016,4.8005,4.7991,4.7989,4.7984,4.7964,4.7941,4.793,4.7923,4.7914,4.7911,4.7932,4.7918,4.7846,4.7834,4.7823,4.7818,4.7933,4.7933,4.7994,4.7995,4.7995]}]]